Regional Weather Roundup
Issued by NWS New Orleans/Baton Rouge, LA

Home | Current Version | Previous Version | Graphics & Text | Print | Product List | Glossary On
Versions: 1 2 3 4 5 6 7 8 9 10 11 12 13 14 15 16 17 18 19 20 21 22 23 24 25 26 27 28 29 30 31 32 33 34 35 36 37 38 39 40 41 42 43 44 45 46 47 48 49 50
862
ASUS44 KLIX 021410
RWRLIX
NEW ORLEANS REGIONAL WEATHER ROUNDUP
NATIONAL WEATHER SERVICE NEW ORLEANS LA
900 AM CDT TUE SEP 02 2014

NOTE: "FAIR" INDICATES FEW OR NO CLOUDS BELOW 12,000 FEET WITH NO
      SIGNIFICANT WEATHER AND/OR OBSTRUCTIONS TO VISIBILITY.
      SKY/WX - SKY CONDITION AND SIGNIFICANT WEATHER.
      TMP - AIR TEMPERATURE.     DP    - DEWPOINT TEMPERATURE.
      RH  - RELATIVE HUMIDITY.   PRES  - PRESSURE.
      HI  - HEAT INDEX.          WCI   - WIND CHILL INDEX.

*  THESE STATIONS ARE NOT NWS OR FAA STATIONS AND ARE NOT UNDER
   NWS QUALITY CONTROL.

LAZ038-040-048-061>063-065>067-069-021500-
SOUTHEAST LOUISIANA

CITY           SKY/WX    TMP DP  RH WIND       PRES   REMARKS
N.O. AUDUBON     N/A     88  79  74 MISG        N/A  HX 102
N.O. INTL ARPT PTSUNNY   85  77  77 S7        30.06S HX  95
N.O. LAKEFRONT MOSUNNY   83  77  82 SE6       30.07S
N.O. DOWNTOWN*   N/A     84  73  70 S5        30.07R
SLIDELL        PTSUNNY   80  77  90 CALM      30.07R
BATON ROUGE    MOSUNNY   83  76  79 SE7       30.05S
BOOTHVILLE     MOSUNNY   86  78  77 E7        30.07S HX  98
BELLE CHASSE   MOSUNNY   86  76  71 S5        30.06S HX  96
BOGALUSA*        N/A     80  75  86 CALM      30.08S
GALLIANO*      NOT AVBL
NEW ROADS*       N/A     82  78  87 SE6       30.05R
GONZALES*        N/A     84  80  89 S7        30.05S HX  97
HAMMOND*       MOSUNNY   81  75  83 CALM      30.08S
HOUMA*         MOSUNNY   84  75  74 SE3       30.06S
PORT FOURCHON* SUNNY     86  75  70 SE8       30.08S HX  95

$$

MSZ070-080>082-021500-
SOUTHERN MISSISSIPPI

CITY           SKY/WX    TMP DP  RH WIND       PRES   REMARKS
MCCOMB         PTSUNNY   81  76  84 S8        30.07S
GULFPORT       MOSUNNY   86  77  74 S3        30.07S HX  97
BILOXI         MOSUNNY   85  77  78 SE3       30.08S HX  95
PASCAGOULA     SUNNY     84  77  79 CALM      30.08S
STENNIS ARPT*  MOSUNNY  N/A N/A N/A SE5       30.08

$$

COASTAL OBSERVATIONS
LAKE AND NEARSHORE STATIONS

STATION/POSITION TIME  TEMP    WIND        PRES    WAVE
                       AIR SEA DIR/SP/G            HT/PER
                 (UTC) (F)     (DEG/KT/KT) (MB)    (FT/S)
PASCAGOULA       1400   85     180/  4/  5 1018.1
WAVELAND YACHT   1400   83     160/  5/  7 1017.8
GRAND ISLE       1400   86 84  160/  5/  7 1018.8
SOUTHWEST PASS   1400   86 90  130/  4/  7 1018.7
NEW CANAL        1400   84 81  170/  4/  6 1018.5
SHELL BEACH      1400   82 80  110/  2/  3 1018.1

OFFSHORE STATIONS

STATION/POSITION TIME  TEMP    WIND        PRES    WAVE
                       AIR SEA DIR/SP/G            HT/PER
                 (UTC) (F)     (DEG/KT/KT) (MB)    (FT/S)
64 S DAUPHIN ISL 1400   84     130/  4     1018.8

$$




USA.gov is the U.S. government's official web portal to all federal, state and local government web resources and services.